Flag for Germany Weather past 2 weeks in Amberg, Bavaria, Germany

Now
37 °F

Overcast.


Feels Like: 30 °F
Forecast: 35 / 42 °F
Wind: 12 mph from West

Location: Hohenfels

Current Time: Dec 21, 2014 at 6:47:13 AM

Latest Report: Dec 21, 2014 at 5:58 AM


Visibility: N/A

Pressure: 30.42 "Hg

Humidity: 81%

Dew point: 32 °F

Location of AmbergLocation

Historic Weather in Amberg — Graph

°F

Amberg temperature yesterday

Maximum temperature yesterday: 42 °F (at 12:58 AM)
Minimum temperature yesterday: 36 °F (at 7:58 AM)
Average temperature yesterday: 39 °F

Past Weeks' High & Low Weather Summary

 TemperatureHumidityPressure
High52 °F (Dec 19, 1:58 PM)100% (Dec 6, 5:58 AM)30.52 "Hg (Dec 6, 5:58 AM)
Low27 °F (Dec 8, 10:58 PM)54% (Dec 13, 1:58 PM)29.74 "Hg (Dec 12, 5:58 PM)
Average40 °F90%30.09 "Hg
* Reported Dec 6 5:58 AM — Dec 21 5:58 AM, Amberg, Weather by CustomWeather, © 2014

Note: Actual official high and low records may vary slightly from our data, if they occured in-between our weather recording intervals... More about our weather records

Advertising

Amberg weather history for previous 24 hours

 ConditionsComfort  
Time TempWeatherWind HumidityBarometerVisibility
5:58 AM
Dec 21
37 °FOvercast.12 mph81%30.42 "HgN/A
4:58 AM37 °FPassing clouds.12 mph81%30.40 "HgN/A
3:58 AM37 °FMostly cloudy.12 mph81%30.37 "HgN/A
2:58 AM37 °FOvercast.10 mph81%30.35 "HgN/A
1:58 AM37 °FLight rain. Partly cloudy.10 mph81%30.32 "HgN/A
12:58 AM37 °FPassing clouds.14 mph81%30.30 "HgN/A
11:58 PM
Dec 20
36 °FPassing clouds.12 mph87%30.30 "HgN/A
11:04 PM36 °FHeavy rain. Fog.13 mph87%30.23 "Hg6 mi
9:58 PM39 °FLight rain. Partly cloudy.14 mph79%30.22 "HgN/A
9:03 PM39 °FLight rain. Partly cloudy.17 mph75%30.16 "HgN/A
8:58 PM39 °FPassing clouds.14 mph80%30.20 "HgN/A
7:58 PM39 °FMostly cloudy.13 mph81%30.21 "HgN/A
7:03 PM37 °FPartly cloudy.12 mph87%30.13 "HgN/A
6:58 PM38 °FPassing clouds.8 mph87%30.18 "HgN/A
6:04 PM39 °FLight rain. Mostly cloudy.8 mph75%30.11 "HgN/A
6:03 PM39 °FLight rain. Mostly cloudy.8 mph75%30.11 "HgN/A
4:58 PM40 °FLight rain. Mostly cloudy.8 mph74%30.15 "HgN/A
4:03 PM41 °FLight rain. Partly sunny.10 mph70%30.10 "HgN/A
4:00 PM41 °FLight rain. Partly sunny.12 mph70%30.10 "HgN/A
3:03 PM41 °FMostly cloudy.10 mph70%30.12 "HgN/A
1:58 PM40 °FMore clouds than sun.8 mph72%30.19 "HgN/A
12:58 PM39 °FOvercast.13 mph75%30.20 "HgN/A
11:58 AM39 °FBroken clouds.13 mph75%30.21 "HgN/A
10:58 AM40 °FPartly sunny.13 mph74%30.24 "HgN/A
9:58 AM39 °FPassing clouds.10 mph75%30.25 "HgN/A
8:58 AM36 °FScattered clouds.3 mph84%30.26 "HgN/A
7:58 AM36 °FClear.6 mph87%30.26 "HgN/A
6:58 AM37 °FClear.7 mph87%30.25 "HgN/A
Weather by CustomWeather, © 2014

See weather overviewHow to use our weather pages